| time (UTC) | temp F | wind direction | speed MPH | gust MPH | rain 1hr in | rain 24hr in | rain mn in | humidity % | barometer mb |
| 20260505034555 | 66 | 268 | 3.0 | 10.0 | 0.00 | 0.00 | 0.00 | 66 | 975.3 |
| 20260505033055 | 67 | 226 | 1.0 | 5.0 | 0.00 | 0.00 | 0.00 | 63 | 974.2 |
| 20260505031555 | 67 | 221 | 3.0 | 9.0 | 0.00 | 0.00 | 0.00 | 63 | 974.4 |
| 20260505030110 | 67 | 226 | 2.0 | 8.0 | 0.00 | 0.00 | 0.00 | 63 | 974.4 |
| 20260505024558 | 67 | 245 | 2.0 | 6.0 | 0.00 | 0.00 | 0.00 | 63 | 974.3 |
| 20260505023054 | 67 | 228 | 1.0 | 8.0 | 0.00 | 0.00 | 0.00 | 62 | 974.3 |
| 20260505021553 | 68 | 213 | 2.0 | 8.0 | 0.00 | 0.00 | 0.00 | 61 | 974.6 |
| 20260505020054 | 68 | 225 | 2.0 | 8.0 | 0.00 | 0.00 | 0.00 | 60 | 974.4 |
| 20260505014606 | 69 | 237 | 1.0 | 9.0 | 0.00 | 0.00 | 0.00 | 59 | 974.2 |
| 20260505013054 | 69 | 240 | 3.0 | 9.0 | 0.00 | 0.00 | 0.00 | 58 | 974.1 |
| 20260505011556 | 70 | 205 | 1.0 | 10.0 | 0.00 | 0.00 | 0.00 | 57 | 973.9 |
| 20260505010058 | 70 | 233 | 2.0 | 7.0 | 0.00 | 0.00 | 0.00 | 56 | 973.8 |
| 20260505004552 | 71 | 231 | 3.0 | 10.0 | 0.00 | 0.00 | 0.00 | 54 | 973.9 |
| 20260505003057 | 72 | 207 | 5.0 | 12.0 | 0.00 | 0.00 | 0.00 | 53 | 973.8 |
| 20260505001547 | 72 | 222 | 4.0 | 13.0 | 0.00 | 0.00 | 0.00 | 53 | 973.6 |
| 20260505000051 | 74 | 217 | 8.0 | 18.0 | 0.00 | 0.00 | 0.00 | 51 | 973.5 |
| 20260504234546 | 74 | 187 | 7.0 | 20.0 | 0.00 | 0.00 | 0.00 | 51 | 973.4 |
| 20260504233045 | 74 | 243 | 7.0 | 17.0 | 0.00 | 0.00 | 0.00 | 53 | 973.6 |
| 20260504231541 | 74 | 251 | 6.0 | 21.0 | 0.00 | 0.00 | 0.00 | 56 | 973.9 |
| 20260504230039 | 74 | 242 | 9.0 | 18.0 | 0.00 | 0.00 | 0.00 | 57 | 974.2 |
| 20260504224537 | 74 | 221 | 6.0 | 18.0 | 0.00 | 0.00 | 0.00 | 60 | 974.5 |
| 20260504223054 | 74 | 247 | 8.0 | 16.0 | 0.00 | 0.00 | 0.00 | 60 | 974.6 |
| 20260504221535 | 73 | 226 | 7.0 | 15.0 | 0.00 | 0.00 | 0.00 | 61 | 974.8 |
| 20260504220034 | 74 | 217 | 5.0 | 17.0 | 0.00 | 0.00 | 0.00 | 62 | 974.8 |
| 20260504214533 | 72 | 213 | 8.0 | 19.0 | 0.00 | 0.00 | 0.00 | 61 | 974.9 |
| 20260504213031 | 73 | 222 | 12.0 | 20.0 | 0.00 | 0.00 | 0.00 | 58 | 974.8 |
| 20260504211539 | 72 | 224 | 10.0 | 24.0 | 0.00 | 0.00 | 0.00 | 59 | 975.1 |
| 20260504210029 | 72 | 217 | 11.0 | 29.0 | 0.00 | 0.00 | 0.00 | 58 | 975.2 |
| 20260504204529 | 74 | 230 | 11.0 | 22.0 | 0.00 | 0.00 | 0.00 | 54 | 975.5 |
| 20260504203027 | 75 | 207 | 8.0 | 25.0 | 0.00 | 0.00 | 0.00 | 52 | 975.5 |
| 20260504201525 | 75 | 228 | 11.0 | 19.0 | 0.00 | 0.00 | 0.00 | 52 | 975.2 |
| 20260504200024 | 75 | 229 | 11.0 | 18.0 | 0.00 | 0.00 | 0.00 | 52 | 975.3 |
| 20260504194522 | 75 | 248 | 12.0 | 21.0 | 0.00 | 0.01 | 0.00 | 53 | 975.3 |
| 20260504193021 | 75 | 210 | 12.0 | 25.0 | 0.00 | 0.01 | 0.00 | 52 | 975.4 |
| 20260504191519 | 74 | 245 | 12.0 | 22.0 | 0.00 | 0.01 | 0.00 | 55 | 975.7 |
| 20260504190019 | 74 | 235 | 16.0 | 31.0 | 0.00 | 0.01 | 0.00 | 53 | 975.6 |
| 20260504184523 | 75 | 248 | 17.0 | 31.0 | 0.00 | 0.09 | 0.00 | 52 | 975.6 |
| 20260504183017 | 75 | 233 | 17.0 | 25.0 | 0.00 | 0.09 | 0.00 | 53 | 975.7 |
| 20260504181515 | 75 | 232 | 13.0 | 25.0 | 0.00 | 0.09 | 0.00 | 55 | 975.7 |
| 20260504180011 | 74 | 230 | 12.0 | 21.0 | 0.00 | 0.09 | 0.00 | 56 | 975.4 |
| 20260504174508 | 74 | 216 | 8.0 | 17.0 | 0.00 | 0.09 | 0.00 | 56 | 975.8 |
| 20260504173006 | 74 | 218 | 8.0 | 22.0 | 0.00 | 0.09 | 0.00 | 58 | 975.8 |
| 20260504171503 | 74 | 233 | 6.0 | 16.0 | 0.00 | 0.09 | 0.00 | 57 | 975.9 |
| 20260504081525 | 50 | 206 | 1.0 | 4.0 | 0.00 | 0.09 | 0.00 | 79 | 979.0 |
| 20260504044558 | 52 | 217 | 1.0 | 5.0 | 0.00 | 0.09 | 0.00 | 77 | 980.6 |
| 20260504043104 | 52 | 194 | 0.0 | 6.0 | 0.00 | 0.09 | 0.00 | 77 | 980.8 |
| 20260504041555 | 52 | 212 | 1.0 | 6.0 | 0.00 | 0.09 | 0.00 | 77 | 980.8 |
| 20260504040123 | 52 | 208 | 1.0 | 5.0 | 0.00 | 0.09 | 0.00 | 77 | 980.9 |